Meteo Giornale » Osservazioni meteo India » Bangalore
ore: 10:30 - Osservazioni Meteo Bangalore
Lat. 12° 57' N Lon. 77° 38' E Alt. 897 metri s.l.m.
27 °C
Nuvoloso
Temp. 24 Ore
20 °C
28 °C
Nord-Ovest
14.8 Km/h
Dew point 20 °C
Umidità 65 %
Visibilità 8 Km
Il sole sorge alle ore 06:08
Il sole tramonta alle ore 18:30
| Data e Ora | Cielo e Fenomeni | T °C | DP °C | Um. % | Pres. hPa | Vis. km | Vento km/h | |
|---|---|---|---|---|---|---|---|---|
| Oggi h: 10:30 | Nuvoloso | 27 | 20 | 65 | 1017 | 8 | NO 14.8 | |
| Oggi h: 10:00 | Nuvoloso | 26 | 20 | 69 | 1017 | 8 | NO 20.3 | |
| Oggi h: 09:30 | Nuvoloso | 25 | 20 | 73 | 1017 | 8 | O/NO 18.5 | |
| Oggi h: 09:00 | Nuvoloso | 24 | 20 | 78 | 1017 | 8 | O 18.5 | |
| Oggi h: 08:30 | Nuvoloso | 23 | 20 | 83 | 1016 | 6 | O 13 | |
| Oggi h: 08:00 | Nuvoloso | 22 | 20 | 88 | 1016 | 6 | O 16.7 | |
| Oggi h: 07:30 | Nuvoloso | 22 | 20 | 88 | 1016 | 6 | O 16.7 | |
| Oggi h: 07:00 | Poco Nuvoloso | 21 | 19 | 88 | 1015 | 6 | O 14.8 | |
| Oggi h: 06:30 | Poco Nuvoloso | 20 | 18 | 88 | 1015 | 6 | O/SO 9.3 | |
| Oggi h: 06:00 | Poco Nuvoloso | 20 | 18 | 88 | 1015 | 6 | O/SO 11.1 | |
| Oggi h: 05:30 | Poco Nuvoloso | 20 | 18 | 88 | 1015 | 6 | O/SO 11.1 | |
| Oggi h: 05:00 | Poco Nuvoloso | 20 | 18 | 88 | 1014 | 6 | O/SO 11.1 | |
| Oggi h: 04:30 | Poco Nuvoloso | 21 | 18 | 82 | 1014 | 6 | O/SO 9.3 | |
| Oggi h: 04:00 | Poco Nuvoloso | 21 | 18 | 82 | 1015 | 6 | O 11.1 | |
| Oggi h: 03:30 | Poco Nuvoloso | 21 | 19 | 88 | 1015 | 6 | O 11.1 | |
| Oggi h: 03:00 | Poco Nuvoloso | 21 | 19 | 88 | 1014 | 6 | O 11.1 | |
| Oggi h: 02:30 | Poco Nuvoloso | 21 | 19 | 88 | 1015 | 6 | O/SO 11.1 | |
| Oggi h: 02:00 | Poco Nuvoloso | 21 | 18 | 82 | 1015 | 6 | O 14.8 | |
| Oggi h: 01:30 | Poco Nuvoloso | 21 | 18 | 82 | 1015 | 6 | O 14.8 | |
| Oggi h: 01:00 | Poco Nuvoloso | 21 | 18 | 82 | 1015 | 6 | O 11.1 | |
| Oggi h: 00:30 | Nuvoloso | 21 | 18 | 82 | 1016 | 6 | O 11.1 | |
| Oggi h: 00:00 | Nuvoloso | 21 | 18 | 82 | 1016 | 6 | O 11.1 | |
| Ieri h: 23:30 | Nuvoloso | 22 | 18 | 78 | 1016 | 6 | O/SO 11.1 | |
| Ieri h: 23:00 | Nuvoloso | 22 | 18 | 78 | 1016 | 6 | O/SO 14.8 | |
| Ieri h: 22:30 | Nuvoloso | 22 | 18 | 78 | 1016 | 6 | O 14.8 | |
| Ieri h: 22:00 | Nuvoloso | 22 | 18 | 78 | 1016 | 6 | O/SO 7.4 | |
| Ieri h: 21:30 | Nuvoloso | 23 | 18 | 73 | 1016 | 6 | N 5.5 | |
| Ieri h: 21:00 | Nuvoloso | 24 | 18 | 69 | 1015 | 6 | N 5.5 | |
| Ieri h: 20:30 | Nuvoloso | 25 | 18 | 65 | 1015 | 6 | O/NO 7.4 | |
| Ieri h: 20:00 | Nuvoloso | 25 | 18 | 65 | 1015 | 6 | N 5.5 | |
| Ieri h: 19:30 | Nuvoloso | 26 | 18 | 61 | 1015 | 6 | O/NO 7.4 | |
| Ieri h: 19:00 | Nuvoloso | 26 | 18 | 61 | 1014 | 6 | O/NO 9.3 | |
| Ieri h: 18:30 | Nuvoloso | 27 | 18 | 57 | 1014 | 6 | O/NO 9.3 | |
| Ieri h: 18:00 | Nuvoloso | 27 | 19 | 61 | 1013 | 6 | O/NO 14.8 | |
| Ieri h: 17:30 | Nuvoloso | 28 | 19 | 58 | 1013 | 6 | O 14.8 | |
| Ieri h: 17:00 | Nuvoloso | 28 | 19 | 58 | 1013 | 8 | O/NO 22.2 | |
| Ieri h: 16:30 | Nuvoloso | 28 | 19 | 58 | 1013 | 8 | O 20.3 | |
| Ieri h: 16:00 | Nuvoloso | 28 | 20 | 61 | 1013 | 8 | O/NO 16.7 | |
| Ieri h: 15:30 | Nuvoloso | 28 | 21 | 65 | 1013 | 8 | O 14.8 | |
| Ieri h: 15:00 | Nuvoloso | 28 | 20 | 61 | 1013 | 8 | O 14.8 | |
| Ieri h: 14:30 | Nuvoloso | 28 | 20 | 61 | 1014 | 8 | O/NO 20.3 | |
| Ieri h: 14:00 | Nuvoloso | 27 | 20 | 65 | 1014 | 8 | O 27.8 | |
| Ieri h: 13:30 | Molto Nuvoloso | 26 | 20 | 69 | 1015 | 6 | O/NO 18.5 | |
| Ieri h: 13:00 | Molto Nuvoloso | 26 | 20 | 69 | 1015 | 6 | O/NO 14.8 | |
| Ieri h: 12:30 | Molto Nuvoloso | 26 | 20 | 69 | 1016 | 6 | O 16.7 | |
| Ieri h: 12:00 | Molto Nuvoloso | 26 | 20 | 69 | 1016 | 6 | O/NO 16.7 | |
| Ieri h: 11:30 | Molto Nuvoloso | 25 | 20 | 73 | 1016 | 8 | O/NO 22.2 | |



